Clarksville, TN

2:46 AM CST on February 24, 2017 (GMT -0600)
Outlaw

Weather History for KCKV - January, 2014

Change the Weather History Date:

Sunday, January 5, 2014

  Actual Average Record
Temperature  
Mean Temperature 35 °F 36 °F  
Max Temperature 53 °F 45 °F 70 °F (1955)
Min Temperature 16 °F 27 °F 2 °F (1959)
Degree Days  
Heating Degree Days 30    
Month to date heating degree days 173  
Since 1 July heating degree days 1800  
Cooling Degree Days 0    
Month to date cooling degree days 0  
Year to date cooling degree days  
Moisture  
Dew Point 31 °F    
Average Humidity 76    
Maximum Humidity 93    
Minimum Humidity 59    
Precipitation  
Precipitation 0.38 in 0.11 in 1.67 in (1949)
Month to date precipitation 0.42 0.56  
Year to date precipitation 0.56  
Sea Level Pressure  
Sea Level Pressure 29.83 in    
Wind  
Wind Speed 15 mph (WSW)    
Max Wind Speed 32 mph    
Max Gust Speed 44 mph    
Visibility 7 miles    
Events Rain , Snow    
T = Trace of Precipitation, MM = Missing Value Source: NWS Daily Summary

Daily Weather History Graph

Daily Weather History Graph

Search for Another Location

Airport or City:

Trip Planner

Search our weather history database for the weather conditions in past years. The results will help you decide how hot, cold, wet, or windy it might be!

Date:

Astronomy

Jan. 05, 2014 Rise Set
Actual Time 7:02 AM CST 4:48 PM CST
Civil Twilight 6:33 AM CST 5:16 PM CST
Nautical Twilight 6:01 AM CST 5:48 PM CST
Astronomical Twilight 5:30 AM CST 6:20 PM CST
Moon 9:52 AM CST (1/5) 10:06 PM CST (1/5)
Length of Visible Light 10h 42m
Length of Day
9h 45m
Waxing Crescent, 25% of the Moon is Illuminated
Jan 5
Waxing Crescent
Jan 7
First Quarter
Jan 15
Full
Jan 23
Last Quarter
Jan 30
New

Hourly Weather History & Observations

Time (CST) Temp. Windchill Dew Point Humidity Pressure Visibility Wind Dir Wind Speed Gust Speed Precip Events Conditions
12:52 AM 37.9 °F 31.5 °F 25.0 °F 60% 30.03 in 10.0 mi SSE 9.2 mph - N/A   Overcast
1:52 AM 39.0 °F 34.0 °F 26.1 °F 60% 30.01 in 10.0 mi SSE 6.9 mph - N/A   Overcast
2:52 AM 37.9 °F 32.7 °F 28.0 °F 68% 29.99 in 10.0 mi SSE 6.9 mph - N/A   Overcast
3:52 AM 39.0 °F 32.3 °F 30.0 °F 70% 29.94 in 10.0 mi SSE 10.4 mph 18.4 mph N/A   Clear
4:52 AM 39.0 °F 34.0 °F 30.9 °F 73% 29.93 in 10.0 mi SSE 6.9 mph - N/A   Clear
5:52 AM 39.9 °F 33.9 °F 33.1 °F 77% 29.91 in 10.0 mi SSE 9.2 mph - N/A   Overcast
6:52 AM 41.0 °F 34.3 °F 35.1 °F 79% 29.90 in 10.0 mi South 11.5 mph - N/A   Mostly Cloudy
7:52 AM 42.1 °F 35.7 °F 35.1 °F 76% 29.87 in 10.0 mi SSE 11.5 mph - N/A   Overcast
8:52 AM 44.1 °F 38.1 °F 37.0 °F 76% 29.84 in 10.0 mi South 11.5 mph 20.7 mph N/A   Overcast
9:52 AM 46.0 °F 39.6 °F 39.0 °F 76% 29.80 in 10.0 mi South 15.0 mph 21.9 mph N/A   Partly Cloudy
10:52 AM 50.0 °F - 41.0 °F 71% 29.74 in 10.0 mi South 15.0 mph 25.3 mph N/A   Clear
11:52 AM 53.1 °F - 42.1 °F 66% 29.67 in 10.0 mi South 21.9 mph 32.2 mph N/A   Overcast
12:52 PM 52.0 °F - 46.0 °F 80% 29.61 in 9.0 mi South 19.6 mph 27.6 mph 0.08 in Rain Light Rain
1:52 PM 50.0 °F - 46.9 °F 89% 29.62 in 1.8 mi SSW 12.7 mph 19.6 mph 0.10 in Rain Heavy Rain
2:06 PM 50.0 °F - 48.2 °F 94% 29.61 in 2.5 mi SSW 11.5 mph - 0.05 in Rain Rain
2:15 PM 50.0 °F - 48.2 °F 94% 29.61 in 4.0 mi SSW 15.0 mph - 0.06 in Rain Light Rain
2:52 PM 50.0 °F - 48.0 °F 93% 29.61 in 2.5 mi SSW 15.0 mph 23.0 mph 0.11 in Rain Rain
3:00 PM 50.0 °F - 48.2 °F 94% 29.61 in 3.0 mi SSW 16.1 mph - 0.01 in Rain Light Rain
3:52 PM 51.1 °F - 48.9 °F 92% 29.62 in 4.0 mi SW 11.5 mph 18.4 mph 0.06 in Rain Light Rain
4:10 PM 37.4 °F 25.9 °F 35.6 °F 93% 29.67 in 2.0 mi NW 25.3 mph 43.7 mph 0.01 in Rain Rain
4:16 PM 35.6 °F 23.4 °F 33.8 °F 93% 29.68 in 3.0 mi WNW 25.3 mph 36.8 mph 0.01 in Rain Light Rain
4:25 PM 35.6 °F 23.7 °F 33.8 °F 93% 29.69 in 1.8 mi WNW 24.2 mph 35.7 mph 0.02 in Rain Light Rain
4:48 PM 33.8 °F 21.3 °F 32.0 °F 93% 29.71 in 3.0 mi NW 24.2 mph 32.2 mph 0.02 in   Overcast
4:52 PM 33.1 °F 20.9 °F 30.9 °F 92% 29.74 in 3.0 mi WNW 21.9 mph 32.2 mph 0.02 in Rain Light Rain
5:15 PM 32.0 °F 21.2 °F 30.2 °F 93% 29.75 in 4.0 mi WNW 16.1 mph - 0.01 in Rain Light Freezing Rain
5:38 PM 30.2 °F 17.1 °F 28.4 °F 93% 29.78 in 4.0 mi WNW 21.9 mph 28.8 mph 0.01 in Snow Light Snow
5:50 PM 30.2 °F 18.1 °F 26.6 °F 86% 29.80 in 7.0 mi WNW 18.4 mph 29.9 mph 0.01 in Snow Light Snow
5:52 PM 28.9 °F 15.1 °F 26.1 °F 89% 29.81 in 8.0 mi WNW 23.0 mph 29.9 mph 0.01 in Snow Light Snow
6:10 PM 26.6 °F 10.8 °F 21.2 °F 80% 29.83 in 10.0 mi WNW 27.6 mph 38.0 mph 0.00 in   Overcast
6:25 PM 26.6 °F 11.7 °F 21.2 °F 80% 29.85 in 10.0 mi WNW 24.2 mph 34.5 mph 0.00 in   Overcast
6:36 PM 26.6 °F 13.1 °F 21.2 °F 80% 29.87 in 10.0 mi NW 19.6 mph 35.7 mph 0.00 in   Overcast
6:50 PM 24.8 °F 10.3 °F 21.2 °F 86% 29.89 in 10.0 mi NW 20.7 mph 35.7 mph 0.00 in   Overcast
6:52 PM 25.0 °F 9.5 °F 21.0 °F 85% 29.91 in 10.0 mi NW 24.2 mph 35.7 mph 0.00 in   Overcast
7:05 PM 24.8 °F 9.0 °F 19.4 °F 80% 29.90 in 10.0 mi NW 25.3 mph 32.2 mph N/A   Overcast
7:52 PM 23.0 °F 7.6 °F 17.1 °F 78% 29.98 in 10.0 mi NW 21.9 mph 33.4 mph N/A   Overcast
8:52 PM 21.0 °F 5.0 °F 15.1 °F 78% 30.03 in 4.0 mi NW 21.9 mph 32.2 mph 0.00 in Snow Light Snow
9:52 PM 19.0 °F 2.0 °F 12.9 °F 77% 30.09 in 5.0 mi NW 23.0 mph 32.2 mph 0.00 in Snow Light Snow
10:52 PM 18.0 °F 1.3 °F 12.0 °F 78% 30.12 in 7.0 mi NW 20.7 mph 31.1 mph 0.00 in Snow Light Snow
11:52 PM 16.0 °F 0.1 °F 9.0 °F 74% 30.16 in 9.0 mi NW 17.3 mph 28.8 mph 0.00 in Snow Light Snow